Location: Newark
(52.3500°N, 175.9667°E)
Time: 13:36:03
(UTC+00:00)

N. Korean satellite - Pass Details

Date: 15 November 2019
Orbit: 455 x 507 km, 97.2° (Epoch: 14 December)

Event Time Altitude Azimuth Distance (km) Brightness Sun altitude
Rises 17:14:43 0° 26° (NNE) 2,627 10.6 -21.5°
Reaches altitude 10° 17:17:21 10° 46° (NE) 1,733 9.9 -21.1°
Maximum altitude 17:19:58 18° 90° (E) 1,301 9.7 -20.7°
Drops below altitude 10° 17:22:34 10° 135° (SE) 1,714 10.0 -20.3°
Sets 17:25:09 0° 155° (SSE) 2,584 10.7 -20.0°
